Location: Newark
(42.8481°N, 0.4872°E)
Time: 00:11:06
(UTC+00:00)

Transit 2A - Pass Details

Date: 28 October 2020
Orbit: 595 x 963 km, 66.7° (Epoch: 03 December)

Event Time Altitude Azimuth Distance (km) Brightness Sun altitude
Rises 08:36:00 0° 334° (NNW) 3,486 8.9 19.6°
Reaches altitude 10° 08:38:59 10° 346° (NNW) 2,484 8.2 20.0°
Maximum altitude 08:43:48 27° 44° (NE) 1,481 7.7 20.6°
Drops below altitude 10° 08:48:13 10° 102° (ESE) 2,259 9.6 21.2°
Sets 08:50:48 0° 115° (ESE) 3,114 10.4 21.5°
